STARLINK-2395, 47814

Orbit data source: Space-Track

STARLINK-2395, 47814 is a payload satellite owned by SpaceX/Seattle (US) in LEO that was launched on Thu, 11 Mar 2021 UTC via an FALCON 9 launch vehicle from the Air Force Eastern Test Range (AFETR). Payload-class satellites include a variety of spacecraft equipped with specific instruments for various scientific and technological missions. These include communications satellites like Starlink; space stations such as the ISS; scientific satellites like the Hubble; Earth observation satellites from companies like Planet Labs, Umbra, and HawkEye 360; GPS; miniature CubeSats for education and research; and military/defense satellites.

Loading next visibility...
Identifier
47814, 2021-018AD
Orbit
LEO
Country
Flag of USUS
Related business
Manufacturer
SpaceX/Seattle
Mission
Operational Commercial Communications
Bus & Motor
STARLINK, Unknown motor
Mass
260 kg wet, ~248 kg dry
Launch date (UTC)
2021-03-11 (5 years ago)
Launch vehicle
FALCON 9
Launch site
Air Force Eastern Test Range (AFETR)
Object type
Payload
Rocket body
Debris
Shape & HBR
Box + 1 Pan, 10.1 m
Radar Cross Section
13.562 m², Large (>1 m²)

Expand to show TLE details & history
Last TLE update: 12 hours ago

TLE from 12 hours ago
0 STARLINK-2395
1 47814U 21018AD  26119.97499615  .00003721  00000-0  13163-3 0  9995
2 47814  53.1611   4.4059 0001174  92.4816 267.6320 15.31695722284649
Epoch: 2026-04-29T23:23Z
TLE epoch observation values (Epoch: 2026-04-29T23:23:59.667Z)
Latitude
-0°
Longitude
155.47903°
Altitude
471.686 km
Speed
7.631 km/s
True Right ascension
00h 17m 37s
True Declination
0° 00' 00"
Sunlit
Object was in daylight at epoch
Visualization orbit readout
Latitude
Unknown
Longitude
Unknown
Altitude
Unknown
Speed
Unknown
Apparent Right ascension
Unknown
Apparent Declination
Unknown
Sunlit
N/A
Visualization observer readout
Local Sidereal Time
19:00:05
Azimuth
Unknown
Elevation
Unknown
Doppler factor
Unknown
Orbital elements
Apogee altitude
471.813 km
Perigee altitude
470.205 km
Semi-major axis
6,849.146 km
Eccentricity
0.00012
Inclination
53.1611°
RAAN
4.4059°
Arg. of periapsis
92.4816°
True anomaly
267.61856°
Mean anomaly
267.632°
Eccentric anomaly
267.62528°
Mean motion
3.82903 °/min
Orbital period
94.02 mins
BSTAR
0.00013163
Loading maneuver chart data...
Computing Atmospheric mass density...
Loading historical data...
Loading historical data...
Loading historical data...
Loading historical data...
Loading historical data...
Loading historical data...
Loading historical data...

Documentation

Showing up to 5 results
|